TimeAKDT,TemperatureF,Dew PointF,Humidity,Sea Level PressureIn,VisibilityMPH,Wind Direction,Wind SpeedMPH,Gust SpeedMPH,PrecipitationIn,Events,Conditions,WindDirDegrees,DateUTC
12:16 AM,48.2,42.8,82,30.27,10.0,Calm,Calm,-,N/A,,Clear,0,2013-06-15 08:16:00
12:36 AM,48.2,41.0,76,30.27,10.0,Calm,Calm,-,N/A,,Clear,0,2013-06-15 08:36:00
12:56 AM,46.4,39.2,76,30.27,9.0,Calm,Calm,-,N/A,,Clear,0,2013-06-15 08:56:00
1:16 AM,46.4,39.2,76,30.28,10.0,Calm,Calm,-,N/A,,Clear,0,2013-06-15 09:16:00
1:36 AM,44.6,39.2,81,30.28,10.0,Calm,Calm,-,N/A,,Clear,0,2013-06-15 09:36:00
1:56 AM,44.6,39.2,81,30.28,10.0,Calm,Calm,-,N/A,,Clear,0,2013-06-15 09:56:00
2:16 AM,44.6,39.2,81,30.28,10.0,West,3.5,-,N/A,,Clear,270,2013-06-15 10:16:00
2:36 AM,44.6,41.0,87,30.29,10.0,West,3.5,-,N/A,,Clear,280,2013-06-15 10:36:00
2:56 AM,42.8,37.4,81,30.29,10.0,Calm,Calm,-,N/A,,Clear,0,2013-06-15 10:56:00
3:16 AM,42.8,37.4,81,30.29,10.0,Calm,Calm,-,N/A,,Clear,0,2013-06-15 11:16:00
3:36 AM,39.2,35.6,87,30.29,10.0,Calm,Calm,-,N/A,,Clear,0,2013-06-15 11:36:00
3:56 AM,39.2,35.6,87,30.29,10.0,Calm,Calm,-,N/A,,Clear,0,2013-06-15 11:56:00
4:16 AM,39.2,35.6,87,30.30,10.0,Calm,Calm,-,N/A,,Clear,0,2013-06-15 12:16:00
4:36 AM,39.2,33.8,81,30.30,10.0,Calm,Calm,-,N/A,,Clear,0,2013-06-15 12:36:00
4:56 AM,37.4,33.8,87,30.30,10.0,Calm,Calm,-,N/A,,Clear,0,2013-06-15 12:56:00
5:16 AM,39.2,35.6,87,30.30,10.0,Calm,Calm,-,N/A,,Partly Cloudy,0,2013-06-15 13:16:00
5:36 AM,39.2,35.6,87,30.30,10.0,Calm,Calm,-,N/A,,Mostly Cloudy,0,2013-06-15 13:36:00
5:56 AM,41.0,37.4,87,30.31,10.0,Calm,Calm,-,N/A,,Overcast,0,2013-06-15 13:56:00
6:16 AM,41.0,37.4,87,30.31,0.2,East,3.5,-,N/A,,Overcast,80,2013-06-15 14:16:00
6:36 AM,41.0,37.4,87,30.31,0.2,East,3.5,-,N/A,,Overcast,90,2013-06-15 14:36:00
6:56 AM,42.8,39.2,87,30.31,10.0,Calm,Calm,-,N/A,,Partly Cloudy,0,2013-06-15 14:56:00
7:16 AM,44.6,41.0,87,30.31,10.0,Calm,Calm,-,N/A,,Scattered Clouds,0,2013-06-15 15:16:00
7:36 AM,46.4,42.8,87,30.32,10.0,West,4.6,-,N/A,,Partly Cloudy,280,2013-06-15 15:36:00
7:56 AM,46.4,42.8,87,30.32,10.0,West,8.1,-,N/A,,Mostly Cloudy,280,2013-06-15 15:56:00
8:16 AM,46.4,42.8,87,30.32,10.0,West,5.8,-,N/A,,Overcast,280,2013-06-15 16:16:00
8:36 AM,48.2,44.6,87,30.33,10.0,WNW,6.9,-,N/A,,Overcast,300,2013-06-15 16:36:00
8:56 AM,46.4,44.6,93,30.33,7.0,NNW,5.8,-,N/A,,Overcast,330,2013-06-15 16:56:00
9:16 AM,48.2,44.6,87,30.33,10.0,NNW,4.6,-,N/A,,Overcast,330,2013-06-15 17:16:00
9:36 AM,48.2,44.6,87,30.32,10.0,NNW,4.6,-,N/A,,Overcast,330,2013-06-15 17:36:00
9:56 AM,50.0,44.6,82,30.32,10.0,NW,3.5,-,N/A,,Overcast,320,2013-06-15 17:56:00
10:16 AM,51.8,44.6,76,30.32,10.0,West,8.1,-,N/A,,Scattered Clouds,280,2013-06-15 18:16:00
10:36 AM,51.8,46.4,82,30.32,10.0,WNW,5.8,-,N/A,,Clear,290,2013-06-15 18:36:00
10:56 AM,53.6,46.4,77,30.31,10.0,NW,5.8,-,N/A,,Clear,320,2013-06-15 18:56:00
11:16 AM,55.4,46.4,72,30.31,10.0,West,4.6,-,N/A,,Clear,260,2013-06-15 19:16:00
11:36 AM,55.4,46.4,72,30.30,10.0,West,5.8,-,N/A,,Clear,280,2013-06-15 19:36:00
11:56 AM,57.2,46.4,67,30.30,10.0,West,8.1,-,N/A,,Clear,280,2013-06-15 19:56:00
12:16 PM,57.2,46.4,67,30.30,10.0,West,6.9,-,N/A,,Clear,270,2013-06-15 20:16:00
12:36 PM,57.2,46.4,67,30.30,10.0,WNW,9.2,-,N/A,,Clear,300,2013-06-15 20:36:00
12:56 PM,57.2,46.4,67,30.30,10.0,West,9.2,-,N/A,,Clear,280,2013-06-15 20:56:00
1:16 PM,57.2,46.4,67,30.29,10.0,West,11.5,-,N/A,,Clear,270,2013-06-15 21:16:00
1:36 PM,57.2,44.6,63,30.29,10.0,West,9.2,-,N/A,,Clear,270,2013-06-15 21:36:00
1:56 PM,57.2,44.6,63,30.29,10.0,West,9.2,-,N/A,,Clear,280,2013-06-15 21:56:00
2:16 PM,59.0,46.4,63,30.28,10.0,West,9.2,-,N/A,,Clear,280,2013-06-15 22:16:00
2:36 PM,57.2,46.4,67,30.28,10.0,West,8.1,-,N/A,,Clear,280,2013-06-15 22:36:00
2:56 PM,59.0,46.4,63,30.28,10.0,West,8.1,-,N/A,,Clear,270,2013-06-15 22:56:00
3:16 PM,60.8,46.4,59,30.28,10.0,West,10.4,-,N/A,,Clear,270,2013-06-15 23:16:00
3:36 PM,60.8,46.4,59,30.27,10.0,West,10.4,-,N/A,,Clear,280,2013-06-15 23:36:00
3:56 PM,62.6,46.4,55,30.27,10.0,West,9.2,-,N/A,,Clear,280,2013-06-15 23:56:00
4:16 PM,62.6,46.4,55,30.26,10.0,WNW,9.2,-,N/A,,Clear,290,2013-06-16 00:16:00
4:36 PM,64.4,46.4,52,30.26,10.0,WNW,9.2,-,N/A,,Clear,300,2013-06-16 00:36:00
4:56 PM,64.4,46.4,52,30.26,10.0,WNW,9.2,-,N/A,,Clear,290,2013-06-16 00:56:00
5:16 PM,64.4,46.4,52,30.25,10.0,West,10.4,-,N/A,,Clear,270,2013-06-16 01:16:00
5:36 PM,62.6,46.4,55,30.25,10.0,West,8.1,-,N/A,,Clear,270,2013-06-16 01:36:00
5:56 PM,64.4,46.4,52,30.25,10.0,West,8.1,-,N/A,,Clear,260,2013-06-16 01:56:00
6:16 PM,62.6,46.4,55,30.25,10.0,West,8.1,-,N/A,,Clear,280,2013-06-16 02:16:00
6:36 PM,62.6,46.4,55,30.25,10.0,WNW,6.9,-,N/A,,Clear,290,2013-06-16 02:36:00
6:56 PM,62.6,46.4,55,30.24,10.0,West,6.9,-,N/A,,Clear,270,2013-06-16 02:56:00
7:16 PM,62.6,48.2,59,30.24,10.0,WNW,5.8,-,N/A,,Clear,300,2013-06-16 03:16:00
7:36 PM,62.6,48.2,59,30.24,10.0,WNW,6.9,-,N/A,,Clear,290,2013-06-16 03:36:00
7:56 PM,60.8,48.2,63,30.24,10.0,West,6.9,-,N/A,,Clear,280,2013-06-16 03:56:00
8:16 PM,60.8,48.2,63,30.24,10.0,WNW,5.8,-,N/A,,Clear,300,2013-06-16 04:16:00
8:36 PM,60.8,48.2,63,30.23,10.0,WNW,6.9,-,N/A,,Clear,300,2013-06-16 04:36:00
8:56 PM,60.8,46.4,59,30.24,10.0,WNW,6.9,-,N/A,,Clear,290,2013-06-16 04:56:00
9:16 PM,59.0,46.4,63,30.24,10.0,WNW,5.8,-,N/A,,Clear,290,2013-06-16 05:16:00
9:36 PM,59.0,46.4,63,30.23,10.0,WNW,4.6,-,N/A,,Clear,300,2013-06-16 05:36:00
9:56 PM,59.0,46.4,63,30.23,10.0,NW,4.6,-,N/A,,Clear,310,2013-06-16 05:56:00
10:16 PM,57.2,46.4,67,30.23,10.0,WNW,5.8,-,N/A,,Clear,290,2013-06-16 06:16:00
10:36 PM,57.2,46.4,67,30.23,10.0,West,5.8,-,N/A,,Clear,280,2013-06-16 06:36:00
10:56 PM,55.4,46.4,72,30.23,10.0,WNW,4.6,-,N/A,,Clear,290,2013-06-16 06:56:00
11:16 PM,53.6,44.6,72,30.23,10.0,West,5.8,-,N/A,,Clear,260,2013-06-16 07:16:00
11:36 PM,53.6,44.6,72,30.24,10.0,West,3.5,-,N/A,,Clear,270,2013-06-16 07:36:00
11:56 PM,51.8,44.6,76,30.24,10.0,Calm,Calm,-,N/A,,Clear,0,2013-06-16 07:56:00